Orbital Elements at Epoch 2459000.5 (2020-May-31.0) TDB
Reference: JPL 14 (heliocentric ecliptic J2000)
Element | Value | Uncertainty (1-sigma) | Units |
e | .05777240606238785 | 1.1851e-07 | |
a | 2.600451144945056 | 3.2164e-08 | au |
q | 2.450216825453889 | 3.31e-07 | au |
i | 21.42497124821254 | 3.7133e-06 | deg |
node | 279.009677519369 | 2.7427e-05 | deg |
peri | 117.887850850051 | 9.4492e-05 | deg |
M | 302.3635457370681 | 8.4405e-05 | deg |
tp | 2459245.725839665419 (2021-Jan-31.22583967) | 0.0003587 | TDB |
period | 1531.692110635748 4.19 | 2.8418e-05 7.78e-08 | d yr |
n | .235034180498963 | 4.3606e-09 | deg/d |
Q | 2.750685464436223 | 3.4023e-08 | au |
|
| | Orbit Determination Parameters
Additional Information
|